{"data":{"norad_id":68424,"epoch":"2026-05-25T03:23:26.350080Z","epoch_age_seconds":59966,"freshness":"FRESH","line1":"1 68424U 26067J   26145.14127720  .00005158  00000+0  25623-3 0  9996","line2":"2 68424  97.4506 103.9186 0003866 104.0863 256.0801 15.18096543  8440","mean_motion":15.18096543,"eccentricity":0.0003866,"inclination_deg":97.4506,"raan_deg":103.9186,"arg_perigee_deg":104.0863,"mean_anomaly_deg":256.0801,"bstar":0.00025623,"rev_number":844,"period_min":94.855627373627,"perigee_km":508.93013366714,"apogee_km":514.25727344713,"semimajor_km":6889.7307035571,"source":"CELESTRAK","updated_at":"2026-05-25T13:38:07.812590Z"}}